RH
57 84 90 75 69 57 36 42 40 37 29 46 48 42 38 32 32 33 30 28 30 31 30 30 57 79 87 87 86 80 78 61 48 52 51 51 53 47 40 34 32 29 25 24
62 90 50 48 54 69 62 62 47 33 33 42 44 44 34 30 29 30 32 32 32 30 30 33 49 85 92 92 91 86 84 70 51 53 53 53 53 48 43 39 35 31 29 30
64 48 40 43 45 65 74 82 64 48 35 45 55 55 41 31 28 28 29 30 30 32 30 31 39 76 89 94 94 89 85 82 56 56 56 57 55 53 49 43 41 36 32 34
85 49 37 39 44 38 84 56 60 61 68 93 72 76 36 34 33 27 28 29 32 33 30 31 35 58 84 90 91 88 88 86 82 60 59 59 57 58 54 47 45 41 37 34
69 61 47 55 44 40 53 59 60 57 75 75 96 97 39 28 25 20 23 24 32 34 34 34 35 45 67 83 91 91 86 80 83 70 58 60 58 54 52 48 46 42 41 37
94 54 62 39 34 40 35 40 48 61 77 98 64 70 40 28 24 20 19 20 29 34 36 34 36 43 55 80 91 93 93 90 90 86 60 57 60 56 53 50 49 49 47 43
61 78 63 67 49 39 54 65 96 98 99 86 50 55 43 21 19 16 17 17 22 33 36 39 39 45 52 82 92 92 89 92 88 85 71 55 55 52 52 53 52 53 50 44
87 80 73 57 69 67 50 81 88 81 60 65 34 76 36 18 16 15 18 20 20 24 31 38 40 47 55 72 88 90 89 90 90 88 87 56 52 51 50 49 49 50 47 42
84 58 46 61 68 50 62 74 56 79 89 58 32 26 17 15 18 17 19 20 24 23 25 38 41 46 53 68 83 86 87 86 88 83 86 69 53 50 49 48 47 48 44 38
75 89 46 42 93 79 70 49 95 98 92 64 29 26 26 24 23 22 21 21 22 23 23 32 40 45 51 64 73 77 79 80 85 85 82 74 54 48 47 46 48 47 42 37
86 89 58 42 93 87 91 100 88 69 60 64 43 28 15 19 27 33 29 29 26 24 24 24 33 39 49 59 71 73 78 81 85 86 88 77 59 49 46 47 46 44 41 37
68 87 76 57 70 80 92 81 68 64 66 45 40 44 22 30 33 36 35 36 35 35 28 25 29 35 45 53 66 72 74 80 79 77 74 65 56 52 49 49 47 43 37 37
72 65 73 72 64 64 88 92 88 88 81 60 55 42 30 37 47 37 38 39 33 33 33 30 27 32 40 50 56 65 68 71 77 73 73 69 63 55 54 52 50 41 38 36
54 61 65 87 92 88 84 71 80 92 94 57 53 30 42 58 56 39 33 35 36 34 33 32 26 32 36 44 52 59 64 66 72 70 66 62 59 56 54 52 46 43 38 40
57 70 43 43 44 38 50 78 68 68 58 84 39 36 25 45 50 39 31 34 31 32 40 37 27 25 36 42 48 57 61 67 71 69 64 61 58 56 54 51 45 44 42 40
42 69 62 76 42 38 38 32 49 53 36 38 40 49 41 50 41 39 35 31 32 38 48 43 38 28 37 44 54 61 67 70 72 74 69 62 60 57 54 49 46 44 44 43
54 61 71 56 33 38 79 81 64 62 51 46 53 45 39 45 44 38 35 32 34 42 54 50 47 42 41 45 55 65 70 71 77 83 77 68 61 56 52 49 47 46 45 44
48 64 65 68 55 79 66 54 61 86 76 60 53 52 48 48 44 37 32 33 33 47 59 56 51 70 77 63 67 70 76 78 84 87 84 73 64 59 53 47 47 44 44 46
41 53 71 71 56 37 40 76 64 85 90 84 69 61 49 48 45 39 41 30 33 44 54 63 70 72 81 86 82 83 86 88 90 92 88 78 71 66 54 50 47 47 50 50
47 53 56 55 66 51 72 50 42 44 90 80 83 78 57 50 58 49 46 57 46 57 64 72 77 81 83 86 84 89 93 92 92 91 86 79 69 60 59 54 56 57 55 52
73 75 79 58 75 43 56 46 40 65 85 58 79 84 61 59 59 58 51 68 65 69 77 80 83 89 90 85 85 89 89 93 91 91 87 82 76 73 72 78 78 77 66 59
87 81 60 50 63 67 48 45 64 60 48 58 78 68 59 63 78 80 76 74 74 77 80 83 90 95 92 89 90 97 97 99 95 96 97 98 97 94 90 84 81 73 65 68
90 90 86 61 47 46 42 49 46 47 50 53 72 59 57 78 77 76 76 70 70 80 82 83 88 94 95 96 90 96 98 95 97 97 97 96 96 95 91 91 90 86 83 77
59 55 64 61 47 49 41 46 48 52 54 56 56 65 63 73 67 64 65 76 86 87 90 87 89 96 97 97 98 97 98 97 96 96 97 97 96 97 95 92 87 81 77 76
65 60 61 53 43 48 45 54 54 57 49 50 55 56 60 60 66 63 72 83 85 86 95 93 94 96 97 97 97 98 98 96 97 97 97 97 95 92 90 84 80 79 79 74
67 84 75 64 54 59 57 58 56 57 57 52 55 61 60 61 70 79 90 88 86 90 96 95 96 96 97 97 97 98 98 96 94 95 92 89 86 83 84 88 91 82 80 76
Wind_Speed
21 20 26 38 42 43 18 28 26 24 23 21 23 26 23 22 21 20 18 20 20 21 20 20 20 19 17 17 19 20 18 18 15 13 12 11 10 9 9 9 12 13 11 11
25 27 38 35 28 24 29 25 26 16 20 18 21 26 21 22 22 21 22 21 19 19 22 20 20 17 17 17 19 20 17 16 14 12 11 11 10 9 8 9 11 11 11 10
32 35 32 32 31 27 29 28 29 24 15 16 19 25 25 26 21 22 22 22 21 20 20 21 23 21 17 18 19 19 17 18 13 14 11 10 10 8 7 9 9 9 11 9
24 37 32 33 36 33 30 28 23 21 17 13 15 15 20 27 28 26 25 23 21 21 21 20 22 23 19 19 17 18 17 18 12 13 14 18 14 13 8 9 9 9 10 10
23 24 32 33 32 36 28 21 26 24 26 17 10 9 14 19 22 21 22 24 22 21 21 21 21 21 22 18 20 18 19 18 17 15 13 14 15 10 10 9 13 11 10 10
22 21 12 33 32 29 26 22 19 23 19 19 28 17 16 19 19 18 17 19 19 20 22 21 20 22 21 19 19 19 21 20 18 16 10 15 18 16 13 12 10 9 8 8
16 11 27 18 23 25 22 22 11 12 14 14 22 17 19 5 6 14 19 19 18 19 21 20 22 22 21 22 18 19 22 22 18 21 15 14 16 19 19 16 11 13 10 8
11 13 17 11 23 17 31 21 11 15 15 15 15 11 16 18 16 18 16 13 14 18 18 20 21 21 22 23 22 23 25 23 23 20 15 14 15 12 12 15 12 10 10 10
7 9 20 17 26 25 20 24 24 12 1 5 11 16 13 9 11 14 15 15 16 17 15 19 21 21 23 25 25 25 25 23 23 23 20 16 15 15 15 16 14 11 12 11
6 13 13 27 4 13 10 17 11 7 5 9 12 15 11 7 7 5 8 13 15 16 17 16 18 21 21 23 24 26 26 28 27 21 18 17 18 17 17 16 16 15 13 14
8 7 14 18 8 13 5 3 6 5 7 3 10 12 9 9 9 9 6 7 4 9 14 15 18 19 21 21 23 25 25 25 21 21 20 18 19 18 17 16 16 15 15 15
9 8 13 22 15 14 5 9 12 7 10 11 7 5 6 15 9 6 6 6 7 6 9 12 16 19 22 23 23 24 24 24 24 25 21 20 17 17 18 17 18 17 16 14
12 8 12 11 7 13 10 11 17 13 5 12 12 6 13 12 10 12 6 4 6 7 7 9 14 17 20 23 22 22 22 23 23 23 23 19 18 18 17 18 18 17 17 15
10 9 9 8 12 14 12 19 15 9 4 7 14 14 13 5 6 14 11 4 8 12 11 10 13 16 18 21 22 22 21 20 22 22 22 23 22 21 18 19 18 18 17 16
8 9 13 14 19 21 19 17 17 11 10 5 9 15 15 10 7 10 10 10 15 11 11 11 10 15 18 20 20 20 20 21 20 23 22 22 19 19 19 18 18 17 16 15
11 7 17 16 18 16 15 13 12 5 7 8 9 12 9 1 7 8 16 14 13 8 7 8 7 12 15 17 19 18 19 19 20 22 20 19 18 19 19 19 19 19 17 14
12 6 7 8 12 16 4 3 10 12 14 9 5 10 11 9 12 10 13 13 8 5 4 5 4 4 9 14 16 18 17 17 18 17 19 20 19 19 19 19 19 19 19 15
9 8 5 9 12 3 7 15 13 11 16 19 16 17 17 16 18 14 11 13 9 2 4 2 1 7 8 4 10 14 17 17 17 17 17 19 19 19 19 19 18 19 17 16
4 7 5 5 8 9 5 11 11 11 5 19 19 20 19 20 18 11 15 10 7 4 4 5 5 6 10 10 12 14 14 15 16 18 19 19 20 19 19 19 19 18 17 15
10 11 7 3 5 3 6 18 14 10 4 22 21 20 22 21 8 7 20 17 6 6 7 7 8 8 9 9 12 15 13 14 14 16 17 20 19 21 20 19 20 17 16 15
6 3 9 9 4 5 13 21 22 3 11 23 20 19 20 14 13 21 16 7 6 9 12 10 11 10 8 8 10 12 13 14 13 15 16 15 20 19 19 20 18 18 15 13
3 2 4 4 4 4 19 9 10 12 17 19 19 18 20 17 13 11 9 7 10 11 11 12 11 11 10 11 13 14 14 13 17 18 18 19 19 15 15 21 19 18 15 14
2 5 6 6 4 14 15 7 11 16 17 18 20 19 17 12 7 7 7 9 11 12 11 11 12 14 11 11 14 17 14 17 19 20 19 19 21 18 17 21 17 13 12 11
5 10 4 11 7 18 16 15 16 17 19 18 16 17 13 6 6 8 9 10 11 11 12 12 15 15 14 13 15 17 16 17 21 22 20 19 21 19 17 13 11 11 9 9
7 9 13 15 9 17 1 19 20 19 17 16 13 11 10 7 8 9 11 11 12 13 12 12 14 14 15 15 16 15 15 18 21 20 19 18 16 17 16 13 10 9 7 8
8 7 5 7 20 16 17 19 19 17 14 13 12 10 11 10 10 11 11 11 12 13 13 14 15 16 16 17 17 17 16 18 20 20 15 15 14 13 13 13 12 20 19 19
Wind_Direction
215 218 213 214 212 220 231 218 228 234 238 205 224 241 230 236 239 244 236 226 224 218 217 218 180 180 181 187 181 188 182 193 174 168 167 163 169 156 152 148 148 157 151 148
240 226 229 230 227 221 235 247 246 238 211 222 235 246 245 242 240 237 233 230 231 221 209 213 187 178 184 185 182 186 188 181 179 169 166 160 156 149 146 139 151 153 150 150
238 234 236 241 242 232 225 223 234 243 235 220 235 251 248 249 241 241 234 236 228 233 217 207 203 178 184 187 184 184 175 154 189 170 158 151 137 144 142 145 145 151 149 149
250 244 236 230 239 234 239 218 230 237 237 234 195 252 228 233 236 231 229 231 226 225 222 216 204 181 188 191 183 180 177 165 166 182 166 157 152 150 161 153 142 145 148 143
227 227 230 235 240 237 230 229 218 235 226 234 218 243 243 251 244 226 219 220 220 215 221 214 209 193 179 192 186 172 170 166 155 179 177 156 153 151 148 147 146 146 141 141
252 270 259 231 233 235 247 243 243 232 232 231 230 222 262 234 228 231 225 224 215 213 214 213 208 186 185 182 185 168 165 168 163 141 192 183 159 146 149 151 148 145 141 140
303 260 244 243 233 233 221 223 224 218 213 230 214 216 232 231 256 251 240 234 216 211 211 212 204 189 182 176 183 168 164 163 161 150 189 202 165 156 154 154 156 152 148 149
345 318 220 250 234 220 204 208 217 201 208 227 181 217 231 226 253 245 248 254 256 214 209 206 207 187 180 180 180 175 173 170 163 164 169 198 170 161 157 159 157 157 153 150
304 283 312 274 243 227 216 214 227 260 125 256 214 230 250 252 263 248 240 240 231 232 227 205 204 189 183 180 181 177 175 175 167 181 171 179 175 171 160 157 157 155 149 144
296 295 298 338 1 269 211 209 185 202 231 223 201 223 203 176 209 212 253 251 241 235 229 206 204 194 183 181 183 184 176 176 169 172 170 175 178 171 161 155 156 157 147 146
311 275 301 331 12 342 252 197 193 239 205 256 221 218 203 235 69 50 354 19 330 213 215 223 203 197 182 180 183 186 177 172 170 166 173 181 183 168 163 156 155 153 146 148
349 293 323 303 330 340 240 315 223 224 195 227 270 263 134 93 77 19 3 13 13 4 314 221 214 199 180 181 184 184 179 176 170 162 176 179 175 165 159 158 155 150 147 151
347 354 323 347 9 20 18 337 339 317 322 226 203 189 137 100 30 334 337 358 19 358 316 270 229 202 187 176 184 184 181 175 171 165 168 169 165 163 163 155 148 148 144 147
343 326 311 307 305 303 302 305 318 313 240 195 220 220 165 170 282 292 310 294 341 335 331 298 245 206 186 178 179 188 177 173 169 169 168 168 169 164 163 151 148 143 148 142
1 317 310 313 287 284 280 294 296 298 275 255 241 225 251 151 194 265 312 308 317 328 325 309 235 222 179 173 177 180 176 171 172 165 169 167 164 155 154 148 144 138 141 139
330 306 318 297 288 268 293 298 280 223 229 262 276 284 325 327 261 244 294 295 304 312 316 313 281 216 180 170 168 173 173 172 166 165 165 158 156 152 150 147 141 139 131 133
302 305 303 276 329 308 277 346 353 358 21 340 300 352 349 275 283 281 288 297 305 313 298 309 290 249 170 164 163 166 164 160 164 161 160 151 152 149 147 146 144 137 132 130
256 257 260 291 297 328 66 37 32 7 52 27 18 9 355 340 326 294 271 299 297 226 216 162 81 56 44 113 140 145 150 158 155 151 152 143 146 146 144 141 139 130 124 125
280 258 263 270 315 323 104 10 354 356 20 28 2 351 348 338 308 276 341 262 293 185 184 125 99 97 100 96 119 133 148 151 149 149 145 146 143 142 138 136 131 117 116 114
308 216 223 230 283 292 17 334 314 301 217 7 351 342 335 337 319 80 356 340 9 88 93 109 101 97 108 117 130 131 132 137 143 145 145 140 138 136 131 129 117 111 104 104
301 178 211 240 298 309 343 328 311 212 339 334 333 325 324 324 310 304 306 2 60 81 86 85 80 77 75 95 115 117 122 119 116 112 115 120 119 124 124 115 105 106 105 117
276 250 190 229 271 269 8 358 29 333 326 325 320 323 319 320 327 353 37 60 74 78 78 82 79 73 70 84 95 95 96 106 108 109 112 113 109 111 110 110 103 101 114 110
353 22 319 323 347 2 348 348 356 342 328 332 318 322 318 324 341 27 62 76 77 74 76 78 81 77 69 81 100 98 104 110 110 105 106 107 102 102 102 97 104 107 105 108
340 35 344 337 42 351 325 13 349 342 330 327 322 318 336 2 46 60 72 73 78 76 72 77 82 80 78 85 93 99 107 110 107 105 103 99 102 100 92 93 99 102 117 126
0 315 341 283 285 335 117 353 341 335 333 332 335 351 3 45 64 75 72 71 72 75 74 78 85 87 87 91 90 94 105 111 104 101 100 99 96 94 93 84 92 103 101 115
10 350 314 299 319 297 308 322 332 329 343 352 6 24 34 65 73 75 75 76 78 80 85 87 89 91 92 91 88 90 94 99 103 101 98 98 98 97 103 104 97 94 102 105